Other Public Products
Issued by NWS Grand Forks, ND

Home | Current Version | Previous Version | Graphics & Text | Print | Product List | Glossary On
Versions: 1 2 3 4 5 6 7 8 9 10 11 12 13 14 15 16 17 18 19 20 21 22 23 24 25 26 27 28 29 30 31 32 33 34 35 36 37 38 39 40 41 42 43 44 45 46 47 48 49 50
000
FPUS83 KFGF 180831
OPUFGF
PRAIRIE TO PINES WEATHER ROUNDUP
NATIONAL WEATHER SERVICE EASTERN NORTH DAKOTA/GRAND FORKS ND
300 AM CDT THU SEP 18 2014

 **SATELLITE DATA USED TO AUGMENT SKY COVER AT AUTOMATED STATIONS**
 *****  WEATHER ACROSS EASTERN NORTH DAKOTA  *****

CITY           SKY/WX    TMP DP  RH WIND       PRES   REMARKS
GRAND FORKS    CLEAR     38  37  97 N3        30.03F
GRAND FORKS AF CLEAR     37  37 100 N3        30.03F
GRAND CITY NWS   N/A     41 N/A N/A MISG        N/A
BUXTON           N/A     44  44  99 N3          N/A
DEVILS LAKE    CLEAR     45  37  76 E9        29.99F
FARGO          CLEAR     47  44  90 CALM      30.01R
WAHPETON ARPT  SUNNY     50  46  87 E5        30.01S
$$

 *****  WEATHER ACROSS CENTRAL AND WESTERN NORTH DAKOTA  *****

CITY           SKY/WX    TMP DP  RH WIND       PRES   REMARKS
JAMESTOWN      CLEAR     43  41  93 CALM      30.01S
BISMARCK       CLEAR     48  45  89 NE7       29.97F
MINOT          CLEAR     48  46  93 E8        29.94F
MINOT AFB      CLEAR     45  45  99 SE10      29.94F
GARRISON         N/A     52  50  93 SE8       29.94F
WILLISTON      CLEAR     56  47  71 VRB3      29.85F
DICKINSON      PTCLDY    52  45  77 SE12      29.90F
HETTINGER      MOCLDY    53  46  77 SE10      29.93F
$$

 *****  OTHER OBSERVATIONS NORTHEAST NORTH DAKOTA  *****

CITY           SKY/WX    TMP DP  RH WIND       PRES   REMARKS
WALHALLA       FOG       34  34 100 CALM      30.05F VSB 3/4
LANGDON        FAIR      37  37 100 SE8       30.01F
CAVALIER       FAIR      37  36  93 CALM      30.05F
GRAFTON        FAIR      37  37 100 N5        30.05S
CANDO          FAIR      39  37  93 E7        30.01F
FORT TOTTEN      N/A     46  43  89 SE7       29.95
ROLLA          FAIR      37  37 100 S5        30.01F
RUGBY          FAIR      45  45 100 SE8       29.98F
 ***** THE ABOVE OBSERVATIONS ARE NON NWS ARE NOT QUALITY
        CONTROLLED AND MAY MIS-REPORT RAIN FOR SNOW...
$$

 *****  OTHER OBSERVATIONS SOUTHEAST NORTH DAKOTA *****

CITY           SKY/WX    TMP DP  RH WIND       PRES   REMARKS
COOPERSTOWN    NOT AVBL
VALLEY CITY    FAIR      46  46 100 E3        30.01F
OAKES            N/A     45  45 100 NE3       30.00S
GWINNER        SUNNY     48  48 100 N6        30.01F
BUFFALO          N/A     42  40  93 NE2         N/A
WYNDMERE       NOT AVBL
 ***** THE ABOVE OBSERVATIONS ARE NON NWS ARE NOT QUALITY
       CONTROLLED AND MAY MIS-REPORT RAIN FOR SNOW...
$$

  *****  WEATHER ACROSS NORTHERN MINNESOTA  *****

CITY           SKY/WX    TMP DP  RH WIND       PRES   REMARKS
FLAG ISLAND    CLEAR     46  39  76 SE13      30.07F
WARROAD        CLEAR     43  39  87 E9        30.08F
ROSEAU         CLEAR     36  30  80 E3        30.07F
HALLOCK        CLEAR     39  37  93 E6        30.05S
THF RVR FALLS  CLEAR     43  39  87 E7        30.05S
HALSTAD          N/A     40  39  96 NE3         N/A
FOSSTON        CLOUDY    46  43  87 SE5       30.04S
BAUDETTE       CLEAR     36  34  92 E7        30.09F
WASKISH        CLOUDY    43  41  93 CALM      30.08F
CROOKSTON      CLEAR     45  43  93 E7        30.04S
$$
  *****  WEATHER ACROSS CENTRAL AND WEST MINNESOTA  *****

CITY           SKY/WX    TMP DP  RH WIND       PRES   REMARKS
BEMIDJI        CLOUDY    45  45  97 SE9       30.07S FOG
PARK RAPIDS    CLOUDY    46  45  96 SE9       30.07R FOG
WADENA         FOG       46  45  93 E10       30.06S VSB 3/4
DETROIT LAKES  CLOUDY    50  48  93 SE13      30.05S
MOORHEAD       CLEAR     46  46 100 CALM      30.02S
FERGUS FALLS   CLEAR     54  50  87 E6        30.02S
ELBOW LAKE     FAIR      53  51  93 E10       30.01S
MORRIS MN      CLEAR     54  52  94 E10       30.00S
STAPLES        CLOUDY    46  45  93 E6        30.07F
WHEATON        CLEAR     45  43  93 CALM      30.02S
$$
  *****  WEATHER ELSEWHERE ACROSS MINNESOTA  *****

CITY           SKY/WX    TMP DP  RH WIND       PRES   REMARKS
DULUTH         CLOUDY    44  37  76 E12       30.13S
INTRNTL FALLS  CLOUDY    40  39  97 SE6       30.11F
ELY            CLOUDY    39  37  93 CALM      30.14S
CLOQUET        CLOUDY    43  36  75 E7        30.13S
BRAINERD       CLOUDY    46  44  93 VRB3      30.09S
HIBBING        CLOUDY    44  39  82 SE8       30.13S
ALEXANDRIA     FOG       50  49  96 E12       30.05S VSB 1/4
SAINT CLOUD    CLOUDY    50  46  86 E8        30.08S
MINNEAPOLIS    CLEAR     52  48  86 NE9       30.06S
$$

  *****  WEATHER ACROSS SOUTH DAKOTA  *****

CITY           SKY/WX    TMP DP  RH WIND       PRES   REMARKS
SIOUX FALLS    MOCLDY    60  55  83 E5        29.98S
BROOKINGS      NOT AVBL
WATERTOWN      CLEAR     54  48  80 CALM      30.00R
HURON          CLEAR     53  51  93 E6        29.96F
SISSETON         N/A     44  42  93 N3        29.99S
ABERDEEN       CLEAR     46  45  96 NE3       29.99S
MITCHELL       CLEAR     54  53  97 E5        29.96F
PIERRE         PTCLDY    51  46  83 E7        29.93F
MOBRIDGE       CLEAR     53  47  79 E9        29.93F
RAPID CITY     PTCLDY    55  51  86 CALM      29.94F
$$

  *****  SOME WEATHER IN NEARBY STATES *****

CITY           SKY/WX    TMP DP  RH WIND       PRES   REMARKS
GLASGOW MT     CLEAR     57  47  69 E14       29.74F
GREAT FALLS MT MOCLDY    66  42  41 S9        29.76S
CHEYENNE WY    CLEAR     53  41  63 W9        30.11S
SCOTTSBLUFF NE CLEAR     55  54  96 CALM      29.98S
OMAHA NE       CLEAR     63  58  83 SE9       29.97F
DES MOINES IA  PTCLDY    58  55  90 E3        30.01F
DAVENPORT IA   CLEAR     48  46  93 NE3       30.05S
CHICAGO IL     CLEAR     55  49  80 CALM      30.05S
EAU CLAIRE WI  CLEAR     48  46  93 NE7       30.07S
LA CROSSE WI   MOCLDY    52  50  93 E5        30.05S
$$

  *****  SOME NATIONAL WEATHER *****

CITY           SKY/WX    TMP DP  RH WIND       PRES   REMARKS
LA GUARDIA NY  CLEAR     62  52  69 SW5       29.95S
RALEIGH NC     PTCLDY    61  58  90 CALM      29.95S
ATLANTA GA     MOCLDY    64  58  80 NW7       29.94S
NEW ORLEANS LA PTCLDY    76  72  87 CALM      29.89F
OKLAHOMA CITY  CLOUDY    72  63  73 S6        29.90F
ALBUQUERQUE NM MOCLDY    63  57  81 CALM      30.09F
SALT LAKE CITY PTCLDY    74  45  35 SE10      29.89S
LOS ANGELES CA CLEAR     70  60  70 CALM      29.79S
BOISE ID       CLOUDY    76  40  27 W9        29.71R
SEATTLE WA     CLOUDY    60  57  89 CALM      29.78R
$$

*** WEATHER ACROSS MANITOBA...SASKATCHEWAN AND ONTARIO ***
                ***ONTARIO***

CITY           SKY/WX    TMP DP  RH WIND       PRES   REMARKS
GERALDTON      CLEAR     28  27  93 E2        30.16F
THUNDER BAY    PTCLDY    32  32 100 NW2       30.19S
SIOUX LOOKOUT  CLEAR     27  27 100 CALM      30.14S
TORONTO        PTCLDY    52  46  82 NW8       29.98S
BIG TROUT LK   CLEAR     23  21  93 N2        30.16S
PICKLE LAKE    NOT AVBL
DRYDEN         CLEAR     34  34 100 E3        30.13S
KENORA         CLEAR     36  34  93 E8        30.10F
$$
                *** MANITOBA***

CITY           SKY/WX    TMP DP  RH WIND       PRES   REMARKS
BRANDON        CLEAR     34  34 100 E7        30.02F
DAUPHIN        CLEAR     36  36 100 CALM      29.97F FOG
ISLAND LAKE    PTCLDY    37  28  70 S6        30.09F
PILOT MOUND      N/A     37  37 100 SE8         N/A
THE PAS        CLOUDY    43  41  93 S14       29.87F
THOMPSON       MOCLDY    30  28  93 SE7       29.95F WCI  23
WINNIPEG       CLEAR     39  36  87 SE8       30.08F
LYNN LAKE      MOCLDY    37  32  81 S7        29.79F
CHURCHILL      PTCLDY    30  25  80 S13G21    30.00F WCI  20
GILLAM         PTCLDY    28  25  86 S7        30.05F WCI  21
$$
                ***SASKATCHEWAN***

CITY           SKY/WX    TMP DP  RH WIND       PRES   REMARKS
ESTEVAN        PTCLDY    46  45  93 E9        29.89F
KINDERSLEY     MOCLDY    57  50  77 S8        29.63F
LLOYDMINSTER   CLEAR     48  45  87 SE8       29.61F
PRINCE ALBERT  PTCLDY    41  41 100 E7        29.73F
REGINA         CLEAR     48  46  93 SE18G25   29.81F
YORKTON        PTCLDY    41  39  93 SE12G18   29.89F



USA.gov is the U.S. government's official web portal to all federal, state and local government web resources and services.